CZ-6A DEB, 61816

Orbit data source: Space-Track

CZ-6A DEB, 61816 is space debris in LEO originally from a launch on Tue, 06 Aug 2024 UTC launched from the Taiyaun Space Center, China (TSC). Debris objects in space refer to the collection of defunct objects orbiting the Earth. Examples of debris include non-operational satellites, rocket bodies, and fragments generated from explosions, collisions, or faulty payload assembly.

Loading next visibility...
Identifier
61816, 2024-140ACG
Orbit
LEO
Country
Flag of CNCN / PRC
Related business
Manufacturer
SAST
Mission
Spacecraft
Bus & Motor
Unknown
Mass
Unknown
Launch date (UTC)
2024-08-06 (2 years ago)
Launch vehicle
Unknown
Launch site
Taiyaun Space Center, China (TSC)
Object type
Payload
Rocket body
Debris
Shape & HBR
Unknown shape, 0.1 m
Radar Cross Section
Small (<0.1 m²)

Expand to show TLE details & history
Last TLE update: 13 hours ago

TLE from 13 hours ago
0 CZ-6A DEB
1 61816U 24140ACG 26171.30098468  .00002853  00000-0  10615-2 0  9991
2 61816  89.1571 285.9959 0063543 210.7634 148.9833 14.30750284 92647
Epoch: 2026-06-20T07:13Z
TLE epoch observation values (Epoch: 2026-06-20T07:13:25.076Z)
Latitude
0.00006°
Longitude
-90.87616°
Altitude
831.409 km
Speed
7.417 km/s
True Right ascension
19h 03m 59s
True Declination
0° 00' 00"
Sunlit
Object was in full shadow at epoch
Visualization orbit readout
Latitude
Unknown
Longitude
Unknown
Altitude
Unknown
Speed
Unknown
Apparent Right ascension
Unknown
Apparent Declination
Unknown
Sunlit
N/A
Visualization observer readout
Local Sidereal Time
07:20:56
Azimuth
Unknown
Elevation
Unknown
Doppler factor
Unknown
Orbital elements
Apogee altitude
831.683 km
Perigee altitude
740.635 km
Semi-major axis
7,164.296 km
Eccentricity
0.00635
Inclination
89.1571°
RAAN
285.9959°
Arg. of periapsis
210.7634°
True anomaly
149.35597°
Mean anomaly
148.9833°
Eccentric anomaly
149.16989°
Mean motion
3.57917 °/min
Orbital period
100.58 mins
BSTAR
0.0010615
Loading maneuver chart data...
Computing Atmospheric mass density...
Loading historical data...
Loading historical data...
Loading historical data...
Loading historical data...
Loading historical data...
Loading historical data...
Loading historical data...

Documentation

Showing up to 5 results
|